Time,TemperatureF,DewpointF,PressureIn,WindDirection,WindDirectionDegrees,WindSpeedMPH,WindSpeedGustMPH,Humidity,HourlyPrecipIn,Conditions,Clouds,dailyrainin,SoftwareType,DateUTC
2013-01-21 00:53:00,68.0,-99.9,-100.00,East,80,2.0,5.0,-999,-99.99,,,-99.99,,2013-01-21 05:53:00,
2013-01-21 01:43:00,67.0,-99.9,-100.00,East,80,3.0,6.0,-999,-99.99,,,-99.99,,2013-01-21 06:43:00,
2013-01-21 01:53:00,67.0,-99.9,-100.00,East,80,3.0,6.0,-999,-99.99,,,-99.99,,2013-01-21 06:53:00,
2013-01-21 02:53:00,67.0,-99.9,-100.00,East,90,1.0,3.0,-999,-99.99,,,-99.99,,2013-01-21 07:53:00,
2013-01-21 03:43:00,67.0,-99.9,-100.00,ENE,70,1.0,3.0,-999,-99.99,,,-99.99,,2013-01-21 08:43:00,
2013-01-21 03:53:00,67.0,-99.9,-100.00,ENE,70,1.0,3.0,-999,-99.99,,,-99.99,,2013-01-21 08:53:00,
2013-01-21 04:53:00,66.0,-99.9,-100.00,East,80,2.0,6.0,-999,-99.99,,,-99.99,,2013-01-21 09:53:00,
2013-01-21 05:53:00,66.0,-99.9,-100.00,North,10,1.0,2.0,-999,-99.99,,,-99.99,,2013-01-21 10:53:00,
2013-01-21 06:53:00,65.0,-99.9,-100.00,North,0,0.0,1.0,-999,-99.99,,,-99.99,,2013-01-21 11:53:00,
2013-01-21 07:53:00,65.0,-99.9,-100.00,West,260,1.0,3.0,-999,-99.99,,,-99.99,,2013-01-21 12:53:00,
2013-01-21 07:54:00,65.0,-99.9,-100.00,NW,320,1.0,5.0,-999,-99.99,,,-99.99,,2013-01-21 12:54:00,
2013-01-21 08:43:00,65.0,-99.9,-100.00,NW,320,1.0,5.0,-999,-99.99,,,-99.99,,2013-01-21 13:43:00,
2013-01-21 08:54:00,66.0,-99.9,-100.00,North,350,1.0,2.0,-999,-99.99,,,-99.99,,2013-01-21 13:54:00,
2013-01-21 10:53:00,71.0,-99.9,-100.00,North,10,2.0,3.0,-999,-99.99,,,-99.99,,2013-01-21 15:53:00,
2013-01-21 11:53:00,71.0,-99.9,-100.00,East,100,6.0,8.0,-999,-99.99,,,-99.99,,2013-01-21 16:53:00,
2013-01-21 12:53:00,71.0,-99.9,-100.00,ESE,120,5.0,7.0,-999,-99.99,,,-99.99,,2013-01-21 17:53:00,
2013-01-21 13:43:00,72.0,-99.9,-100.00,West,270,7.0,13.0,-999,-99.99,,,-99.99,,2013-01-21 18:43:00,
2013-01-21 13:53:00,72.0,-99.9,-100.00,West,270,7.0,13.0,-999,-99.99,,,-99.99,,2013-01-21 18:53:00,
2013-01-21 14:53:00,73.0,-99.9,-100.00,West,270,7.0,10.0,-999,-99.99,,,-99.99,,2013-01-21 19:53:00,
2013-01-21 15:53:00,72.0,-99.9,-100.00,West,270,7.0,10.0,-999,-99.99,,,-99.99,,2013-01-21 20:53:00,
2013-01-21 15:54:00,70.0,-99.9,-100.00,West,270,9.0,13.0,-999,-99.99,,,-99.99,,2013-01-21 20:54:00,
2013-01-21 17:53:00,68.0,-99.9,-100.00,West,270,9.0,13.0,-999,-99.99,,,-99.99,,2013-01-21 22:53:00,
2013-01-21 18:53:00,66.0,-99.9,-100.00,West,270,8.0,13.0,-999,-99.99,,,-99.99,,2013-01-21 23:53:00,
2013-01-21 19:53:00,65.0,-99.9,-100.00,West,270,6.0,8.0,-999,-99.99,,,-99.99,,2013-01-22 00:53:00,
2013-01-21 20:43:00,64.0,-99.9,-100.00,West,270,3.0,6.0,-999,-99.99,,,-99.99,,2013-01-22 01:43:00,
2013-01-21 20:53:00,64.0,-99.9,-100.00,West,270,3.0,6.0,-999,-99.99,,,-99.99,,2013-01-22 01:53:00,
2013-01-21 21:53:00,63.0,-99.9,-100.00,WNW,300,2.0,5.0,-999,-99.99,,,-99.99,,2013-01-22 02:53:00,
2013-01-21 22:53:00,63.0,-99.9,-100.00,West,270,6.0,9.0,-999,-99.99,,,-99.99,,2013-01-22 03:53:00,
2013-01-21 23:53:00,63.0,-99.9,-100.00,WNW,290,5.0,7.0,-999,-99.99,,,-99.99,,2013-01-22 04:53:00,